Location: Devore Heights
(34.2372°N, 117.4156°W)
Time: 22:51:53
(UTC+00:00)

Transit 4A - Pass Details

Date: 20 September 2024
Orbit: 864 x 978 km, 66.8° (Epoch: 13 October)

Event Time Altitude Azimuth Distance (km) Brightness Sun altitude
Rises 17:53:53 0° 341° (NNW) 3,615 10.6 47.9°
Reaches altitude 10° 17:56:37 10° 350° (N) 2,683 10.1 48.3°
Maximum altitude 18:02:24 37° 57° (ENE) 1,449 9.5 49.1°
Drops below altitude 10° 18:08:15 10° 124° (ESE) 2,715 11.2 49.8°
Sets 18:11:01 0° 132° (SE) 3,663 11.6 50.2°
